Photometre #857[NE_1.6_Dp] Cork_UCC AOT

File : 20220927_857.hum

27/09/2022,07:25:33,TEMP=14.7,BA=5.32,STAT.h
27/09/2022,07:25:34,TEMP=14.7,BA=5.32,STAT.h
27/09/2022,07:29:47,TEMP=14.7,BA=5.32,STAT.h
27/09/2022,07:29:48,TEMP=14.7,BA=5.32,STAT.h
27/09/2022,07:34:46,TEMP=14.7,BA=5.32,STAT.h
27/09/2022,07:34:47,TEMP=14.7,BA=5.32,STAT.h
27/09/2022,07:40:41,TEMP=14.7,BA=5.36,STAT.h
27/09/2022,07:40:42,TEMP=14.7,BA=5.36,STAT.h
27/09/2022,07:47:51,TEMP=14.7,BA=5.36,STAT.h
27/09/2022,07:47:52,TEMP=14.7,BA=5.36,STAT.h
27/09/2022,07:56:45,TEMP=14.7,BA=5.40,STAT.h
27/09/2022,07:56:51,TEMP=14.7,BA=5.40,STAT.h
27/09/2022,08:08:04,TEMP=14.7,BA=5.40,STAT.h
27/09/2022,08:13:31,TEMP=14.7,BA=5.44,STAT.h
27/09/2022,08:13:32,TEMP=14.7,BA=5.44,STAT.h
27/09/2022,08:19:40,TEMP=14.7,BA=5.44,STAT.h
27/09/2022,08:19:46,TEMP=14.7,BA=5.44,STAT.h
27/09/2022,08:26:38,TEMP=14.7,BA=5.52,STAT.h
27/09/2022,08:26:39,TEMP=14.7,BA=5.52,STAT.h
27/09/2022,08:34:37,TEMP=14.7,BA=5.52,STAT.h
27/09/2022,08:34:38,TEMP=14.7,BA=5.52,STAT.h
27/09/2022,08:43:54,TEMP=14.7,BA=5.52,STAT.h
27/09/2022,08:54:50,TEMP=14.7,BA=5.52,STAT.h
27/09/2022,08:54:56,TEMP=14.7,BA=5.52,STAT.h
27/09/2022,09:07:58,TEMP=14.7,BA=5.44,STAT.h
27/09/2022,09:07:59,TEMP=14.7,BA=5.44,STAT.h
27/09/2022,09:24:10,TEMP=14.7,BA=5.52,STAT.h
27/09/2022,09:24:16,TEMP=14.7,BA=5.52,STAT.h
27/09/2022,09:25:17,TEMP=14.7,BA=5.52,STAT.h
27/09/2022,09:40:17,TEMP=14.7,BA=5.56,STAT.h
27/09/2022,09:40:18,TEMP=14.7,BA=5.56,STAT.h
27/09/2022,09:55:17,TEMP=14.7,BA=5.48,STAT.h
27/09/2022,09:55:18,TEMP=14.7,BA=5.48,STAT.h
27/09/2022,10:10:17,TEMP=14.7,BA=5.52,STAT.h
27/09/2022,10:10:18,TEMP=14.7,BA=5.52,STAT.h
27/09/2022,10:25:17,TEMP=14.7,BA=5.48,STAT.h
27/09/2022,10:30:17,TEMP=14.7,BA=5.48,STAT.h
27/09/2022,10:40:17,TEMP=14.7,BA=5.48,STAT.h
27/09/2022,10:40:18,TEMP=14.7,BA=5.48,STAT.h
27/09/2022,10:55:17,TEMP=14.7,BA=5.52,STAT.h
27/09/2022,10:55:18,TEMP=14.7,BA=5.52,STAT.h
27/09/2022,11:10:17,TEMP=14.7,BA=5.56,STAT.h
27/09/2022,11:10:18,TEMP=14.7,BA=5.56,STAT.h
27/09/2022,11:25:17,TEMP=14.7,BA=5.56,STAT.h
27/09/2022,11:40:20,TEMP=14.7,BA=5.56,STAT.h
27/09/2022,11:40:26,TEMP=14.7,BA=5.56,STAT.h
27/09/2022,11:55:17,TEMP=14.7,BA=5.56,STAT.h
27/09/2022,11:55:18,TEMP=14.7,BA=5.56,STAT.h
27/09/2022,12:10:40,TEMP=17.9,BA=5.56,STAT.D,ExtBa=12.80
27/09/2022,12:25:42,TEMP=18.0,BA=5.56,STAT.F,ExtBa=12.80
27/09/2022,12:40:40,TEMP=18.2,BA=5.56,STAT.D,ExtBa=12.70
27/09/2022,12:55:40,TEMP=18.4,BA=5.56,STAT.D,ExtBa=12.80
27/09/2022,13:10:40,TEMP=18.6,BA=5.56,STAT.D,ExtBa=12.80
27/09/2022,13:25:42,TEMP=18.5,BA=5.56,STAT.F,ExtBa=12.80
27/09/2022,13:40:40,TEMP=18.1,BA=5.56,STAT.D,ExtBa=12.80
27/09/2022,13:55:40,TEMP=17.7,BA=5.56,STAT.D,ExtBa=12.70
27/09/2022,14:10:40,TEMP=17.3,BA=5.56,STAT.D,ExtBa=12.70
27/09/2022,14:25:17,TEMP=17.6,BA=5.48,STAT.h
27/09/2022,14:40:17,TEMP=17.6,BA=5.56,STAT.h
27/09/2022,14:40:18,TEMP=17.6,BA=5.56,STAT.h
27/09/2022,14:55:17,TEMP=17.6,BA=5.56,STAT.h
27/09/2022,14:55:18,TEMP=17.6,BA=5.56,STAT.h
27/09/2022,15:10:17,TEMP=17.6,BA=5.52,STAT.h
27/09/2022,15:10:18,TEMP=17.6,BA=5.52,STAT.h
27/09/2022,15:25:41,TEMP=16.7,BA=5.56,STAT.F,ExtBa=12.70
27/09/2022,15:27:40,TEMP=17.2,BA=5.56,STAT.A,ExtBa=12.60
27/09/2022,15:43:00,TEMP=16.8,BA=5.48,STAT.A,ExtBa=12.70
27/09/2022,15:43:55,TEMP=16.8,BA=5.48,STAT.h
27/09/2022,15:44:06,TEMP=16.8,BA=5.48,STAT.h
27/09/2022,15:55:44,TEMP=16.8,BA=5.48,STAT.h
27/09/2022,15:55:45,TEMP=16.8,BA=5.48,STAT.h
27/09/2022,16:06:40,TEMP=16.8,BA=5.52,STAT.h
27/09/2022,16:15:57,TEMP=16.8,BA=5.52,STAT.h
27/09/2022,16:15:58,TEMP=16.8,BA=5.52,STAT.h
27/09/2022,16:23:56,TEMP=16.8,BA=5.48,STAT.h
27/09/2022,16:23:57,TEMP=16.8,BA=5.48,STAT.h
27/09/2022,16:30:54,TEMP=16.8,BA=5.48,STAT.h
27/09/2022,16:37:03,TEMP=16.8,BA=5.48,STAT.h
27/09/2022,16:37:04,TEMP=16.8,BA=5.48,STAT.h
27/09/2022,16:42:30,TEMP=16.8,BA=5.52,STAT.h
27/09/2022,16:53:49,TEMP=16.8,BA=5.52,STAT.h
27/09/2022,17:02:43,TEMP=16.8,BA=5.56,STAT.h
27/09/2022,17:02:44,TEMP=16.8,BA=5.56,STAT.h
27/09/2022,17:09:53,TEMP=16.8,BA=5.56,STAT.h
27/09/2022,17:09:54,TEMP=16.8,BA=5.56,STAT.h
27/09/2022,17:15:48,TEMP=16.8,BA=5.56,STAT.h
27/09/2022,17:15:49,TEMP=16.8,BA=5.56,STAT.h
27/09/2022,17:20:47,TEMP=16.8,BA=5.44,STAT.h
27/09/2022,17:20:48,TEMP=16.8,BA=5.44,STAT.h
27/09/2022,17:25:01,TEMP=16.8,BA=5.44,STAT.h
27/09/2022,17:25:02,TEMP=16.8,BA=5.44,STAT.h
27/09/2022,17:30:17,TEMP=16.8,BA=5.44,STAT.h